TIANTONG-1 1 (41725 NORAD) Tracking and Keplerian Element Data

This shows tracking and keplerian element data for the satellite.

Feedback or suggestion? Click here.




ElementValue
Catalog41725
NameTIANTONG-1 1
Epoch Orbit3126
Epoch Day34.84057442
Epoch Year2025
RAAN36.0062
Inclination2.9631
Eccentricity0.0006773
Argument of Perigee307.8661
Mean Anonmoly194.328
Mean Motion1.00271935
Decay Rate-3.14E-06
L11 41725U 16048A 25034.84057442 -.00000314 00000+0 00000+0 0 9993
L22 41725 2.9631 36.0062 0006773 307.8661 194.3280 1.00271935 31260



Live tracking and technical data element details for TIANTONG-1 1 (NORAD 41725). TIANTONG-1 1 can be tracked NOW for your location showing map with azimuth and elevation plus other details from your city location.







IsCatalogInMostPopularTable: catalog: 41725, numindb: 1316
Update: records affected: 1



GetName: 41725 TIANTONG-1 1

Hit Count: updated at: Sat, 17 May 2025 08:32:52 GMT